Location: Hollin Hills
(38.7573°N, 77.0661°W)
Time: 19:13:38
(UTC+00:00)

BlueWalker 3 - Pass Details

Date: 10 April 2026
Orbit: 447 x 458 km, 53.2° (Epoch: 12 May)

Event Time Altitude Azimuth Distance (km) Brightness Sun altitude
Rises 00:37:44 0° 314° (NW) 2,475 6.8 -11.7°
Reaches altitude 10° 00:39:54 10° 319° (NW) 1,600 5.5 -12.1°
Maximum altitude 00:43:27 57° 39° (NE) 543 2.0 -12.8°
Enters shadow 00:45:27 23° 110° (ESE) 1,008 2.8 -13.1°
